User: anonymous   Login
Location: Caltech
(34.1382°N, 118.1253°W)
Time: 04:29:30
(UTC-08:00)
Language:

Oscar 19 - Orbit

View from above orbital plane
View from above orbital plane
View from above satellite
View from above satellite

Ground track
Ground track

The orbit data is extracted from the following two-line orbital elements,

1 20442U 90005G   15059.32708136  .00000187  00000-0  84527-4 0  9992
2 20442 098.5037 357.0572 0012911 108.5985 251.6602 14.32691306311355
Epoch (UTC): 28 February 2015 07:50:59
Eccentricity: 0.0012911
inclination: 98.5037°
perigee height: 773 km
apogee height: 792 km
right ascension of ascending node: 357.0572°
argument of perigee: 108.5985°
revolutions per day: 14.32691306
mean anomaly at epoch: 251.6602°
orbit number at epoch: 31135

The dashed part of the orbit path shows where the satellite is in the earth's shadow,  

DLR